Regional Weather Roundup
Issued by NWS Raleigh/Durham, NC

Home | Current Version | Previous Version | Text Only | Print | Product List | Glossary On
Versions: 1 2 3 4 5 6 7 8 9 10 11 12 13 14 15 16 17 18 19 20 21 22 23 24 25 26 27
000
ASUS42 KRAH 241010
RWRRAH
NORTH CAROLINA WEATHER ROUNDUP
NATIONAL WEATHER SERVICE RALEIGH NC
600 AM EDT THU APR 24 2014

NOTE: "FAIR" INDICATES FEW OR NO CLOUDS BELOW 12,000 FEET WITH NO
SIGNIFICANT WEATHER AND/OR OBSTRUCTIONS TO VISIBILITY.

NCZ001-053-055-056-065-067-241100-
WESTERN NORTH CAROLINA

CITY           SKY/WX    TMP DP  RH WIND       PRES   REMARKS
ASHEVILLE      CLEAR     38  34  85 CALM      30.06R
JEFFERSON      CLEAR     41  22  46 CALM      30.05R
MORGANTON      CLEAR     35  33  94 N3        30.10R
HICKORY        CLEAR     44  32  62 CALM      30.06R
RUTHERFORDTON  CLEAR     41  35  76 W7        30.07R
MOUNT AIRY     CLEAR     42  34  72 CALM      30.07R
BOONE          CLEAR     33  27  80 CALM      30.06R
$$

NCZ021-022-025-041-071-084-088-241100-
CENTRAL NORTH CAROLINA

CITY           SKY/WX    TMP DP  RH WIND       PRES   REMARKS
CHARLOTTE      CLEAR     51  31  46 NE7       30.05R
GREENSBORO     PTCLDY    44  30  57 CALM      30.06R
WINSTON-SALEM  CLEAR     43  31  62 NE3       30.08R
RALEIGH-DURHAM PTCLDY    43  33  68 CALM      30.07R
FORT BRAGG     CLEAR     48  37  65 N3        30.06R
FAYETTEVILLE   CLEAR     45  37  73 N6        30.05R
CHAPEL HILL    CLEAR     43  34  70 CALM      30.08R
BURLINGTON     CLEAR     39  33  79 CALM      30.07R
LAURINBURG     CLEAR     45  36  70 NE3       30.06R
$$

NCZ011-015-027-028-043-044-047-080-103-241100-
NORTHEASTERN NORTH CAROLINA

CITY           SKY/WX    TMP DP  RH WIND       PRES   REMARKS
ROCKY MT-WILSO CLEAR     42  35  76 N7        30.07R
GREENVILLE     CLEAR     41  36  81 NE6       30.08R
WASHINGTON     CLEAR     45  37  74 CALM      30.07R
ELIZABETH CITY CLEAR     48  34  58 NW12      30.06R
MANTEO         CLEAR     48  37  65 N8        30.04R
CAPE HATTERAS  CLEAR     51  36  56 NE9G21    30.04R
$$

NCZ078-087-090-091-093-098-101-241100-
SOUTHEASTERN NORTH CAROLINA

CITY           SKY/WX    TMP DP  RH WIND       PRES   REMARKS
LUMBERTON      CLEAR     50  36  58 E5        30.05R
GOLDSBORO      CLEAR     45  39  81 N3        30.05R
KINSTON        CLEAR     41  39  90 CALM      30.07R
KENANSVILLE    CLEAR     43  38  81 CALM      30.06R
NEW BERN       CLEAR     50  38  63 NE9       30.06R
CHERRY POINT   CLEAR     53  38  56 N12       30.05R
BEAUFORT       CLEAR     50  43  77 N6        30.03R
JACKSONVILLE   CLEAR     48  42  80 N7        30.05R
WILMINGTON     CLEAR     48  41  76 N9        30.03R
$$




USA.gov is the U.S. government's official web portal to all federal, state and local government web resources and services.